Time,TemperatureF,DewpointF,PressureIn,WindDirection,WindDirectionDegrees,WindSpeedMPH,WindSpeedGustMPH,Humidity,HourlyPrecipIn,Conditions,Clouds,dailyrainin,SoftwareType,DateUTC
2013-03-18 00:00:00,70.7,59.2,29.72,ESE,112,1.1,4.9,67,0.00,,---,0.00,VWS V13.01,2013-03-18 04:00:00,
2013-03-18 00:05:00,70.7,59.2,29.71,ESE,112,1.3,1.3,67,0.00,,---,0.00,VWS V13.01,2013-03-18 04:05:00,
2013-03-18 00:10:00,70.5,59.0,29.71,ESE,112,0.4,24.6,67,0.00,,---,0.00,VWS V13.01,2013-03-18 04:10:00,
2013-03-18 00:15:00,70.5,59.0,29.71,SE,135,0.0,23.5,67,0.00,,---,0.00,VWS V13.01,2013-03-18 04:15:00,
2013-03-18 00:20:00,70.5,59.0,29.71,ESE,112,7.8,7.8,67,0.00,,---,0.00,VWS V13.01,2013-03-18 04:20:00,
2013-03-18 00:25:00,70.3,58.9,29.71,ESE,112,0.4,7.8,67,0.00,,---,0.00,VWS V13.01,2013-03-18 04:25:00,
2013-03-18 00:35:00,70.5,59.0,29.71,SE,135,0.7,0.7,67,0.00,,---,0.00,VWS V13.01,2013-03-18 04:35:00,
2013-03-18 00:40:00,70.5,59.0,29.71,SE,135,4.5,4.5,67,0.00,,---,0.00,VWS V13.01,2013-03-18 04:40:00,
2013-03-18 00:50:00,70.5,59.0,29.71,SE,135,0.2,2.0,67,0.00,,---,0.00,VWS V13.01,2013-03-18 04:50:00,
2013-03-18 01:00:00,70.5,59.0,29.70,SE,135,2.5,2.5,67,0.00,,---,0.00,VWS V13.01,2013-03-18 05:00:00,
2013-03-18 01:10:00,70.5,59.0,29.69,SE,135,2.7,2.7,67,0.00,,---,0.00,VWS V13.01,2013-03-18 05:10:00,
2013-03-18 01:20:00,70.5,59.5,29.69,ESE,112,3.6,3.6,68,0.00,,---,0.00,VWS V13.01,2013-03-18 05:20:00,
2013-03-18 01:30:00,70.5,59.5,29.70,ESE,112,2.0,15.9,68,0.00,,---,0.00,VWS V13.01,2013-03-18 05:30:00,
2013-03-18 01:35:00,70.5,59.5,29.69,SE,135,0.7,2.0,68,0.00,,---,0.00,VWS V13.01,2013-03-18 05:35:00,
2013-03-18 01:40:00,70.5,59.5,29.69,SE,135,1.1,1.1,68,0.00,,---,0.00,VWS V13.01,2013-03-18 05:40:00,
2013-03-18 01:50:00,70.5,59.5,29.69,SE,135,15.4,16.6,68,0.00,,---,0.00,VWS V13.01,2013-03-18 05:50:00,
2013-03-18 01:55:00,70.5,59.5,29.69,South,180,1.6,15.4,68,0.00,,---,0.00,VWS V13.01,2013-03-18 05:55:00,
2013-03-18 02:00:00,70.5,59.5,29.69,SE,135,0.4,1.6,68,0.00,,---,0.00,VWS V13.01,2013-03-18 06:00:00,
2013-03-18 02:10:00,70.5,59.5,29.69,SE,135,0.0,0.4,68,0.00,,---,0.00,VWS V13.01,2013-03-18 06:10:00,
2013-03-18 02:15:00,70.3,59.3,29.69,SSE,158,1.1,1.6,68,0.00,,---,0.00,VWS V13.01,2013-03-18 06:15:00,
2013-03-18 02:25:00,70.3,59.7,29.69,ESE,112,0.0,1.3,69,0.00,,---,0.00,VWS V13.01,2013-03-18 06:25:00,
2013-03-18 02:30:00,70.3,59.7,29.69,South,180,3.6,3.6,69,0.00,,---,0.00,VWS V13.01,2013-03-18 06:30:00,
2013-03-18 02:40:00,70.3,59.3,29.68,South,180,1.1,1.1,68,0.00,,---,0.00,VWS V13.01,2013-03-18 06:40:00,
2013-03-18 02:45:00,70.3,59.3,29.68,SSE,158,2.9,2.9,68,0.00,,---,0.00,VWS V13.01,2013-03-18 06:45:00,
2013-03-18 02:55:00,70.3,59.7,29.68,SSE,158,3.4,3.4,69,0.00,,---,0.00,VWS V13.01,2013-03-18 06:55:00,
2013-03-18 03:00:00,70.3,59.7,29.68,SSE,158,0.7,3.4,69,0.00,,---,0.00,VWS V13.01,2013-03-18 07:00:00,
2013-03-18 03:10:00,70.3,59.3,29.67,SE,135,2.7,3.6,68,0.00,,---,0.00,VWS V13.01,2013-03-18 07:10:00,
2013-03-18 03:15:00,70.3,59.7,29.67,ESE,112,1.8,2.7,69,0.00,,---,0.00,VWS V13.01,2013-03-18 07:15:00,
2013-03-18 03:25:00,70.3,59.7,29.66,South,180,9.0,9.0,69,0.00,,---,0.00,VWS V13.01,2013-03-18 07:25:00,
2013-03-18 03:35:00,70.5,59.9,29.66,East,90,4.7,6.0,69,0.00,,---,0.00,VWS V13.01,2013-03-18 07:35:00,
2013-03-18 03:45:00,70.5,59.9,29.66,SE,135,5.1,5.1,69,0.00,,---,0.00,VWS V13.01,2013-03-18 07:45:00,
2013-03-18 03:55:00,70.5,59.9,29.67,SSE,158,4.5,4.5,69,0.00,,---,0.00,VWS V13.01,2013-03-18 07:55:00,
2013-03-18 04:00:00,70.7,60.0,29.67,South,180,4.0,4.5,69,0.00,,---,0.00,VWS V13.01,2013-03-18 08:00:00,
2013-03-18 04:05:00,70.7,60.0,29.67,SE,135,0.0,4.0,69,0.00,,---,0.00,VWS V13.01,2013-03-18 08:05:00,
2013-03-18 04:10:00,70.9,60.2,29.67,SSE,158,1.1,1.1,69,0.00,,---,0.00,VWS V13.01,2013-03-18 08:10:00,
2013-03-18 04:20:00,70.9,60.2,29.67,SSE,158,0.0,1.1,69,0.00,,---,0.00,VWS V13.01,2013-03-18 08:20:00,
2013-03-18 04:25:00,71.1,60.8,29.67,SE,135,1.8,1.8,70,0.00,,---,0.00,VWS V13.01,2013-03-18 08:25:00,
2013-03-18 04:35:00,71.2,61.4,29.67,SSE,158,2.9,3.6,71,0.00,,---,0.00,VWS V13.01,2013-03-18 08:35:00,
2013-03-18 04:40:00,71.2,61.4,29.67,South,180,3.1,3.1,71,0.00,,---,0.00,VWS V13.01,2013-03-18 08:40:00,
2013-03-18 04:45:00,71.2,61.4,29.67,SE,135,2.2,3.1,71,0.00,,---,0.00,VWS V13.01,2013-03-18 08:45:00,
2013-03-18 04:55:00,71.2,61.4,29.67,SSE,158,20.4,20.4,71,0.00,,---,0.00,VWS V13.01,2013-03-18 08:55:00,
2013-03-18 05:00:00,71.2,61.4,29.67,SSW,202,2.7,20.4,71,0.00,,---,0.00,VWS V13.01,2013-03-18 09:00:00,
2013-03-18 05:10:00,71.2,61.0,29.67,SSE,158,2.7,4.3,70,0.00,,---,0.00,VWS V13.01,2013-03-18 09:10:00,
2013-03-18 05:15:00,71.2,61.0,29.67,SSE,158,2.0,2.7,70,0.00,,---,0.00,VWS V13.01,2013-03-18 09:15:00,
2013-03-18 05:25:00,71.2,61.0,29.67,SSE,158,3.4,3.4,70,0.00,,---,0.00,VWS V13.01,2013-03-18 09:25:00,
2013-03-18 05:35:00,71.2,60.6,29.67,South,180,7.6,10.3,69,0.00,,---,0.00,VWS V13.01,2013-03-18 09:35:00,
2013-03-18 05:45:00,71.2,60.6,29.67,SSE,158,2.0,6.7,69,0.00,,---,0.00,VWS V13.01,2013-03-18 09:45:00,
2013-03-18 05:50:00,71.4,60.7,29.67,SSE,158,2.0,2.0,69,0.00,,---,0.00,VWS V13.01,2013-03-18 09:50:00,
2013-03-18 06:00:00,71.2,61.0,29.67,SSE,158,4.7,5.4,70,0.00,,---,0.00,VWS V13.01,2013-03-18 10:00:00,
2013-03-18 06:10:00,71.2,61.0,29.67,South,180,6.5,6.5,70,0.00,,---,0.00,VWS V13.01,2013-03-18 10:10:00,
2013-03-18 06:15:00,71.2,61.4,29.67,South,180,4.7,6.5,71,0.00,,---,0.00,VWS V13.01,2013-03-18 10:15:00,
2013-03-18 06:25:00,71.2,61.4,29.68,SE,135,7.2,7.2,71,0.00,,---,0.00,VWS V13.01,2013-03-18 10:25:00,
2013-03-18 06:30:00,71.2,61.4,29.68,NE,45,0.4,7.2,71,0.00,,---,0.00,VWS V13.01,2013-03-18 10:30:00,
2013-03-18 06:40:00,71.2,61.4,29.68,SE,135,4.7,6.0,71,0.00,,---,0.00,VWS V13.01,2013-03-18 10:40:00,
2013-03-18 06:50:00,71.2,61.4,29.69,South,180,11.4,11.4,71,0.00,,---,0.00,VWS V13.01,2013-03-18 10:50:00,
2013-03-18 07:00:00,71.2,61.4,29.69,SE,135,0.0,7.8,71,0.00,,---,0.00,VWS V13.01,2013-03-18 11:00:00,
2013-03-18 07:10:00,71.2,61.0,29.69,South,180,4.3,5.4,70,0.00,,---,0.00,VWS V13.01,2013-03-18 11:10:00,
2013-03-18 07:20:00,71.2,61.4,29.69,South,180,7.4,7.4,71,0.00,,---,0.00,VWS V13.01,2013-03-18 11:20:00,
2013-03-18 07:25:00,71.4,61.5,29.69,SSW,202,5.6,7.4,71,0.00,,---,0.00,VWS V13.01,2013-03-18 11:25:00,
2013-03-18 07:35:00,71.4,61.1,29.69,ESE,112,5.8,8.3,70,0.00,,---,0.00,VWS V13.01,2013-03-18 11:35:00,
2013-03-18 07:40:00,71.4,61.1,29.69,ESE,112,5.8,5.8,70,0.00,,---,0.00,VWS V13.01,2013-03-18 11:40:00,
2013-03-18 07:50:00,71.4,61.1,29.69,ESE,112,7.6,7.6,70,0.00,,---,0.00,VWS V13.01,2013-03-18 11:50:00,
2013-03-18 08:00:00,71.6,61.7,29.70,South,180,4.0,6.7,71,0.00,,---,0.00,VWS V13.01,2013-03-18 12:00:00,
2013-03-18 08:10:00,71.8,61.5,29.70,SSE,158,11.0,11.0,70,0.00,,---,0.00,VWS V13.01,2013-03-18 12:10:00,
2013-03-18 08:20:00,72.0,61.2,29.70,South,180,6.3,13.9,69,0.00,,---,0.00,VWS V13.01,2013-03-18 12:20:00,
2013-03-18 08:30:00,72.1,61.4,29.70,SSE,158,4.0,4.7,69,0.00,,---,0.00,VWS V13.01,2013-03-18 12:30:00,
2013-03-18 08:35:00,72.3,61.6,29.70,SE,135,0.7,4.0,69,0.00,,---,0.00,VWS V13.01,2013-03-18 12:35:00,
2013-03-18 08:45:00,72.9,62.1,29.71,SE,135,6.7,6.7,69,0.00,,---,0.00,VWS V13.01,2013-03-18 12:45:00,
2013-03-18 08:50:00,73.0,62.3,29.71,SE,135,7.8,7.8,69,0.00,,---,0.00,VWS V13.01,2013-03-18 12:50:00,
2013-03-18 09:00:00,73.4,62.6,29.71,South,180,3.8,6.3,69,0.00,,---,0.00,VWS V13.01,2013-03-18 13:00:00,
2013-03-18 09:10:00,73.8,63.0,29.70,SE,135,7.4,7.4,69,0.00,,---,0.00,VWS V13.01,2013-03-18 13:10:00,
2013-03-18 09:20:00,74.1,63.7,29.70,SSE,158,5.4,5.4,70,0.00,,---,0.00,VWS V13.01,2013-03-18 13:20:00,
2013-03-18 09:25:00,74.1,63.7,29.71,SSE,158,5.4,5.4,70,0.00,,---,0.00,VWS V13.01,2013-03-18 13:25:00,
2013-03-18 09:30:00,74.1,63.3,29.71,SSE,158,8.1,8.1,69,0.00,,---,0.00,VWS V13.01,2013-03-18 13:30:00,
2013-03-18 09:35:00,74.5,63.7,29.70,SW,225,3.8,8.1,69,0.00,,---,0.00,VWS V13.01,2013-03-18 13:35:00,
2013-03-18 09:45:00,74.1,63.3,29.70,ESE,112,14.1,14.1,69,0.00,,---,0.00,VWS V13.01,2013-03-18 13:45:00,
2013-03-18 09:50:00,74.5,63.7,29.71,SE,135,5.6,14.1,69,0.00,,---,0.00,VWS V13.01,2013-03-18 13:50:00,
2013-03-18 09:55:00,74.5,63.7,29.71,SE,135,5.6,5.6,69,0.00,,---,0.00,VWS V13.01,2013-03-18 13:55:00,
2013-03-18 10:05:00,74.8,64.0,29.71,South,180,6.3,11.0,69,0.00,,---,0.00,VWS V13.01,2013-03-18 14:05:00,
2013-03-18 10:10:00,75.2,64.3,29.71,ESE,112,6.7,6.7,69,0.00,,---,0.00,VWS V13.01,2013-03-18 14:10:00,
2013-03-18 10:20:00,76.6,64.9,29.71,ESE,112,7.6,9.6,67,0.00,,---,0.00,VWS V13.01,2013-03-18 14:20:00,
2013-03-18 10:30:00,76.8,64.6,29.71,South,180,6.0,9.0,66,0.00,,---,0.00,VWS V13.01,2013-03-18 14:30:00,
2013-03-18 10:40:00,77.4,65.1,29.71,ESE,112,7.4,9.6,66,0.00,,---,0.00,VWS V13.01,2013-03-18 14:40:00,
2013-03-18 10:50:00,77.7,65.5,29.71,SSE,158,11.2,11.2,66,0.00,,---,0.00,VWS V13.01,2013-03-18 14:50:00,
2013-03-18 11:00:00,77.9,65.2,29.71,SE,135,8.1,8.3,65,0.00,,---,0.00,VWS V13.01,2013-03-18 15:00:00,
2013-03-18 11:10:00,78.1,65.8,29.71,South,180,7.2,9.2,66,0.00,,---,0.00,VWS V13.01,2013-03-18 15:10:00,
2013-03-18 11:15:00,78.4,65.3,29.71,South,180,8.5,8.5,64,0.00,,---,0.00,VWS V13.01,2013-03-18 15:15:00,
2013-03-18 11:25:00,79.0,65.3,29.70,SSE,158,12.1,12.1,63,0.00,,---,0.00,VWS V13.01,2013-03-18 15:25:00,
2013-03-18 11:30:00,79.5,65.8,29.70,ESE,112,5.1,12.1,63,0.00,,---,0.00,VWS V13.01,2013-03-18 15:30:00,
2013-03-18 11:40:00,79.7,65.5,29.70,SE,135,9.8,9.8,62,0.00,,---,0.00,VWS V13.01,2013-03-18 15:40:00,
2013-03-18 11:45:00,79.7,65.5,29.70,SE,135,5.1,9.8,62,0.00,,---,0.00,VWS V13.01,2013-03-18 15:45:00,
2013-03-18 11:55:00,79.5,65.4,29.70,ESE,112,13.6,13.6,62,0.00,,---,0.00,VWS V13.01,2013-03-18 15:55:00,
2013-03-18 12:05:00,80.1,65.9,29.69,SE,135,9.2,9.2,62,0.00,,---,0.00,VWS V13.01,2013-03-18 16:05:00,
2013-03-18 12:15:00,80.1,65.9,29.69,ESE,112,6.3,6.7,62,0.00,,---,0.00,VWS V13.01,2013-03-18 16:15:00,
2013-03-18 12:25:00,80.6,65.9,29.69,SSW,202,12.3,12.3,61,0.00,,---,0.00,VWS V13.01,2013-03-18 16:25:00,
2013-03-18 12:35:00,80.8,66.1,29.68,East,90,12.8,18.3,61,0.00,,---,0.00,VWS V13.01,2013-03-18 16:35:00,
2013-03-18 12:45:00,81.1,66.4,29.68,SE,135,1.1,12.8,61,0.00,,---,0.00,VWS V13.01,2013-03-18 16:45:00,
2013-03-18 12:55:00,81.3,66.6,29.68,SSE,158,8.5,10.5,61,0.00,,---,0.00,VWS V13.01,2013-03-18 16:55:00,
2013-03-18 13:05:00,81.3,66.1,29.68,South,180,9.2,9.2,60,0.00,,---,0.00,VWS V13.01,2013-03-18 17:05:00,
2013-03-18 13:15:00,81.1,66.4,29.68,South,180,7.2,13.9,61,0.00,,---,0.00,VWS V13.01,2013-03-18 17:15:00,
2013-03-18 13:25:00,81.7,66.5,29.68,SSE,158,5.1,15.9,60,0.00,,---,0.00,VWS V13.01,2013-03-18 17:25:00,
2013-03-18 13:30:00,82.0,66.8,29.67,SSW,202,6.5,16.6,60,0.00,,---,0.00,VWS V13.01,2013-03-18 17:30:00,
2013-03-18 13:40:00,82.0,66.8,29.66,SE,135,13.2,13.2,60,0.00,,---,0.00,VWS V13.01,2013-03-18 17:40:00,
2013-03-18 13:45:00,82.0,66.8,29.65,SE,135,6.0,13.2,60,0.00,,---,0.00,VWS V13.01,2013-03-18 17:45:00,
2013-03-18 13:55:00,82.0,66.8,29.65,ENE,68,6.7,6.7,60,0.00,,---,0.00,VWS V13.01,2013-03-18 17:55:00,
2013-03-18 14:00:00,82.0,66.8,29.65,South,180,16.1,16.1,60,0.00,,---,0.00,VWS V13.01,2013-03-18 18:00:00,
2013-03-18 14:10:00,82.0,67.3,29.65,SSW,202,15.2,15.2,61,0.00,,---,0.00,VWS V13.01,2013-03-18 18:10:00,
2013-03-18 14:15:00,82.2,67.0,29.65,SSW,202,16.8,16.8,60,0.00,,---,0.00,VWS V13.01,2013-03-18 18:15:00,
2013-03-18 14:25:00,82.8,67.5,29.64,SE,135,6.9,13.4,60,0.00,,---,0.00,VWS V13.01,2013-03-18 18:25:00,
2013-03-18 14:30:00,82.2,67.0,29.64,SSW,202,8.3,13.9,60,0.00,,---,0.00,VWS V13.01,2013-03-18 18:30:00,
2013-03-18 14:40:00,81.3,66.6,29.64,WSW,248,4.5,4.5,61,0.00,,---,0.00,VWS V13.01,2013-03-18 18:40:00,
2013-03-18 14:50:00,82.0,66.8,29.63,WSW,248,10.3,10.3,60,0.00,,---,0.00,VWS V13.01,2013-03-18 18:50:00,
2013-03-18 14:55:00,82.0,66.8,29.63,SSE,158,7.6,10.3,60,0.00,,---,0.00,VWS V13.01,2013-03-18 18:55:00,
2013-03-18 15:05:00,82.2,67.0,29.61,WSW,248,7.4,10.1,60,0.00,,---,0.00,VWS V13.01,2013-03-18 19:05:00,
2013-03-18 15:15:00,80.8,66.6,29.62,SE,135,14.8,14.8,62,0.00,,---,0.00,VWS V13.01,2013-03-18 19:15:00,
2013-03-18 15:25:00,80.8,66.6,29.62,WSW,248,7.4,7.4,62,0.00,,---,0.00,VWS V13.01,2013-03-18 19:25:00,
2013-03-18 15:35:00,80.8,66.6,29.61,SSE,158,4.9,4.9,62,0.00,,---,0.00,VWS V13.01,2013-03-18 19:35:00,
2013-03-18 15:45:00,80.4,66.7,29.61,SE,135,11.0,12.1,63,0.00,,---,0.00,VWS V13.01,2013-03-18 19:45:00,
2013-03-18 15:50:00,80.4,66.7,29.61,SE,135,11.0,11.0,63,0.00,,---,0.00,VWS V13.01,2013-03-18 19:50:00,
2013-03-18 16:00:00,79.7,66.5,29.61,SSW,202,15.2,15.2,64,0.00,,---,0.00,VWS V13.01,2013-03-18 20:00:00,
2013-03-18 16:10:00,79.3,66.6,29.61,SSE,158,7.6,7.6,65,0.00,,---,0.00,VWS V13.01,2013-03-18 20:10:00,
2013-03-18 16:20:00,79.0,66.2,29.61,SSW,202,10.1,10.1,65,0.00,,---,0.00,VWS V13.01,2013-03-18 20:20:00,
2013-03-18 16:25:00,79.3,66.6,29.61,South,180,2.9,10.1,65,0.00,,---,0.00,VWS V13.01,2013-03-18 20:25:00,
2013-03-18 16:35:00,79.0,66.2,29.62,South,180,15.4,15.4,65,0.00,,---,0.00,VWS V13.01,2013-03-18 20:35:00,
2013-03-18 16:45:00,78.3,66.0,29.62,ESE,112,6.3,14.5,66,0.00,,---,0.00,VWS V13.01,2013-03-18 20:45:00,
2013-03-18 16:50:00,78.1,66.2,29.62,WSW,248,4.3,6.5,67,0.00,,---,0.00,VWS V13.01,2013-03-18 20:50:00,
2013-03-18 17:00:00,77.5,66.2,29.62,SSW,202,6.3,11.9,68,0.00,,---,0.00,VWS V13.01,2013-03-18 21:00:00,
2013-03-18 17:05:00,77.2,66.2,29.63,East,90,6.9,6.9,69,0.00,,---,0.00,VWS V13.01,2013-03-18 21:05:00,
2013-03-18 17:15:00,76.8,66.7,29.63,South,180,16.1,16.1,71,0.00,,---,0.00,VWS V13.01,2013-03-18 21:15:00,
2013-03-18 17:20:00,76.3,66.2,29.63,SSE,158,7.4,16.1,71,0.00,,---,0.00,VWS V13.01,2013-03-18 21:20:00,
2013-03-18 17:30:00,75.9,66.2,29.62,South,180,5.6,6.9,72,0.00,,---,0.00,VWS V13.01,2013-03-18 21:30:00,
2013-03-18 17:35:00,75.7,66.5,29.62,South,180,7.8,8.7,73,0.00,,---,0.00,VWS V13.01,2013-03-18 21:35:00,
2013-03-18 17:45:00,75.4,66.5,29.62,South,180,14.1,14.1,74,0.00,,---,0.00,VWS V13.01,2013-03-18 21:45:00,
2013-03-18 17:55:00,75.0,66.6,29.62,South,180,6.9,6.9,75,0.00,,---,0.00,VWS V13.01,2013-03-18 21:55:00,
2013-03-18 18:00:00,75.0,66.6,29.61,SSE,158,7.8,7.8,75,0.00,,---,0.00,VWS V13.01,2013-03-18 22:00:00,
2013-03-18 18:05:00,74.8,66.4,29.61,SSE,158,6.9,7.8,75,0.00,,---,0.00,VWS V13.01,2013-03-18 22:05:00,
2013-03-18 18:15:00,74.8,66.8,29.61,SE,135,4.7,8.3,76,0.00,,---,0.00,VWS V13.01,2013-03-18 22:15:00,
2013-03-18 18:25:00,74.7,66.6,29.61,SE,135,7.6,7.8,76,0.00,,---,0.00,VWS V13.01,2013-03-18 22:25:00,
2013-03-18 18:35:00,74.5,66.4,29.62,SSW,202,7.4,7.4,76,0.02,,---,0.02,VWS V13.01,2013-03-18 22:35:00,
2013-03-18 18:40:00,74.3,66.2,29.63,South,180,5.1,7.8,76,0.02,,---,0.02,VWS V13.01,2013-03-18 22:40:00,
2013-03-18 18:50:00,74.1,66.5,29.63,SSE,158,0.4,3.1,77,0.02,,---,0.02,VWS V13.01,2013-03-18 22:50:00,
2013-03-18 19:00:00,74.5,66.8,29.63,SW,225,3.4,7.4,77,0.02,,---,0.02,VWS V13.01,2013-03-18 23:00:00,
2013-03-18 19:10:00,74.3,66.6,29.62,South,180,8.1,8.1,77,0.04,,---,0.04,VWS V13.01,2013-03-18 23:10:00,
2013-03-18 19:15:00,74.3,66.6,29.63,SE,135,4.7,8.1,77,0.04,,---,0.04,VWS V13.01,2013-03-18 23:15:00,
2013-03-18 19:25:00,74.1,66.5,29.63,SW,225,4.0,4.7,77,0.04,,---,0.04,VWS V13.01,2013-03-18 23:25:00,
2013-03-18 19:30:00,74.1,66.5,29.63,SSW,202,3.6,4.0,77,0.02,,---,0.04,VWS V13.01,2013-03-18 23:30:00,
2013-03-18 19:40:00,73.9,66.3,29.63,SSW,202,0.2,6.0,77,0.02,,---,0.04,VWS V13.01,2013-03-18 23:40:00,
2013-03-18 19:50:00,73.9,66.7,29.63,SSW,202,0.4,0.4,78,0.02,,---,0.04,VWS V13.01,2013-03-18 23:50:00,
2013-03-18 19:55:00,73.8,66.5,29.64,WSW,248,1.1,2.9,78,0.04,,---,0.06,VWS V13.01,2013-03-18 23:55:00,
2013-03-18 20:05:00,73.0,65.4,29.64,West,270,0.9,4.3,77,0.02,,---,0.06,VWS V13.01,2013-03-19 00:05:00,
2013-03-18 20:15:00,71.4,63.8,29.65,WNW,292,4.3,4.3,77,0.06,,---,0.10,VWS V13.01,2013-03-19 00:15:00,
2013-03-18 20:25:00,71.2,63.7,29.64,WNW,292,0.0,15.4,77,0.06,,---,0.10,VWS V13.01,2013-03-19 00:25:00,
2013-03-18 20:35:00,70.7,63.5,29.64,NW,315,1.8,15.2,78,0.06,,---,0.10,VWS V13.01,2013-03-19 00:35:00,
2013-03-18 20:45:00,70.5,63.3,29.64,NW,315,0.7,6.7,78,0.06,,---,0.10,VWS V13.01,2013-03-19 00:45:00,
2013-03-18 20:55:00,70.5,63.3,29.64,North,0,3.6,19.2,78,0.04,,---,0.10,VWS V13.01,2013-03-19 00:55:00,
2013-03-18 21:05:00,70.2,63.0,29.64,North,0,7.2,15.9,78,0.02,,---,0.10,VWS V13.01,2013-03-19 01:05:00,
2013-03-18 21:15:00,69.6,62.8,29.65,NNE,22,1.8,6.3,79,0.00,,---,0.10,VWS V13.01,2013-03-19 01:15:00,
2013-03-18 21:25:00,69.4,62.7,29.64,North,0,2.7,5.6,79,0.00,,---,0.10,VWS V13.01,2013-03-19 01:25:00,
2013-03-18 21:35:00,69.3,62.5,29.64,North,0,1.1,2.9,79,0.00,,---,0.10,VWS V13.01,2013-03-19 01:35:00,
2013-03-18 21:45:00,69.4,62.7,29.64,North,0,1.1,1.1,79,0.00,,---,0.10,VWS V13.01,2013-03-19 01:45:00,
2013-03-18 21:50:00,69.4,62.7,29.63,North,0,13.9,20.1,79,0.00,,---,0.10,VWS V13.01,2013-03-19 01:50:00,
2013-03-18 21:55:00,69.4,62.7,29.63,North,0,0.0,20.8,79,0.00,,---,0.10,VWS V13.01,2013-03-19 01:55:00,
2013-03-18 22:05:00,69.6,62.8,29.63,North,0,24.8,24.8,79,0.00,,---,0.10,VWS V13.01,2013-03-19 02:05:00,
2013-03-18 22:10:00,69.6,62.8,29.63,North,0,17.5,24.8,79,0.00,,---,0.10,VWS V13.01,2013-03-19 02:10:00,
2013-03-18 22:20:00,69.6,62.5,29.63,North,0,20.1,20.1,78,0.00,,---,0.10,VWS V13.01,2013-03-19 02:20:00,
2013-03-18 22:30:00,69.8,62.6,29.64,NE,45,18.6,18.6,78,0.00,,---,0.10,VWS V13.01,2013-03-19 02:30:00,
2013-03-18 22:35:00,70.0,62.8,29.64,NE,45,14.8,18.6,78,0.00,,---,0.10,VWS V13.01,2013-03-19 02:35:00,
2013-03-18 22:40:00,70.0,62.8,29.64,NE,45,17.5,17.5,78,0.00,,---,0.10,VWS V13.01,2013-03-19 02:40:00,
2013-03-18 22:50:00,70.0,62.8,29.64,NE,45,13.9,16.6,78,0.00,,---,0.10,VWS V13.01,2013-03-19 02:50:00,
2013-03-18 22:55:00,70.2,63.0,29.64,NE,45,17.9,17.9,78,0.00,,---,0.10,VWS V13.01,2013-03-19 02:55:00,
2013-03-18 23:05:00,70.2,63.0,29.64,NE,45,17.0,19.5,78,0.00,,---,0.10,VWS V13.01,2013-03-19 03:05:00,
2013-03-18 23:10:00,70.3,63.2,29.63,NE,45,11.2,17.0,78,0.00,,---,0.10,VWS V13.01,2013-03-19 03:10:00,
2013-03-18 23:20:00,70.3,63.2,29.63,NE,45,19.0,19.0,78,0.00,,---,0.10,VWS V13.01,2013-03-19 03:20:00,
2013-03-18 23:25:00,70.3,63.2,29.63,NE,45,13.0,19.0,78,0.00,,---,0.10,VWS V13.01,2013-03-19 03:25:00,
2013-03-18 23:35:00,70.3,63.2,29.63,NE,45,0.0,17.7,78,0.00,,---,0.10,VWS V13.01,2013-03-19 03:35:00,
2013-03-18 23:45:00,70.3,63.5,29.63,NE,45,12.1,12.1,79,0.00,,---,0.10,VWS V13.01,2013-03-19 03:45:00,
2013-03-18 23:50:00,70.3,63.5,29.62,NE,45,11.9,23.5,79,0.00,,---,0.10,VWS V13.01,2013-03-19 03:50:00,